Louisville Bowman, KY

8:22 AM EST on December 09, 2019 (GMT -0500)
Bowman

Weather History for KLOU - May, 2019

Change the Weather History Date:

Monday, May 13, 2019

  Actual Average Record
Temperature  
Mean Temperature 55 °F 65 °F  
Max Temperature 59 °F 75 °F 90 °F (1957)
Min Temperature 50 °F 55 °F 39 °F (2013)
Degree Days  
Heating Degree Days 10 3  
Month to date heating degree days 35 46  
Since 1 July heating degree days 4089 4237  
Cooling Degree Days 0 3  
Month to date cooling degree days 30 28  
Year to date cooling degree days 47 62  
Growing Degree Days 4 (Base 50)    
Moisture  
Dew Point 44 °F    
Average Humidity 70    
Maximum Humidity 83    
Minimum Humidity 57    
Precipitation  
Precipitation 0.00 in 0.18 in 2.10 in (2012)
Month to date precipitation 2.15 2.32  
Year to date precipitation 25.56 17.12  
Sea Level Pressure  
Sea Level Pressure 29.91 in    
Wind  
Wind Speed 7 mph (WNW)    
Max Wind Speed 15 mph    
Max Gust Speed 21 mph    
Visibility 10 miles    
Events      
T = Trace of Precipitation, MM = Missing Value Source: NWS Daily Summary

Daily Weather History Graph

Daily Weather History Graph

Search for Another Location

Airport or City:

Astronomy

May. 13, 2019 Rise Set
Actual Time 6:33 AM EDT 8:44 PM EDT
Civil Twilight 6:04 AM EDT 9:14 PM EDT
Nautical Twilight 5:28 AM EDT 9:50 PM EDT
Astronomical Twilight 4:48 AM EDT 10:30 PM EDT
Moon 3:02 PM EDT (5/13) 3:44 AM EDT (5/13)
Length of Visible Light 15h 10m
Length of Day
14h 11m
Waxing Gibbous, 68% of the Moon is Illuminated
May 13
Waxing Gibbous
May 18
Full
May 26
Last Quarter
Jun 3
New
Jun 10
First Quarter

Hourly Weather History & Observations

Time (EDT) Temp. Dew Point Humidity Pressure Visibility Wind Dir Wind Speed Gust Speed Precip Events Conditions
12:43 AM 53.1 °F 46.0 °F 77% 29.82 in 10.0 mi WNW 5.8 mph - N/A   Overcast
12:53 AM 53.1 °F 46.9 °F 80% 29.82 in 10.0 mi WNW 5.8 mph - N/A   Overcast
1:53 AM 52.0 °F 46.0 °F 80% 29.81 in 10.0 mi WNW 6.9 mph - N/A   Mostly Cloudy
2:53 AM 52.0 °F 45.0 °F 77% 29.81 in 10.0 mi WNW 8.1 mph - N/A   Overcast
3:53 AM 51.1 °F 45.0 °F 80% 29.82 in 10.0 mi West 8.1 mph - N/A   Overcast
4:53 AM 51.1 °F 43.0 °F 74% 29.82 in 10.0 mi WNW 10.4 mph 17.3 mph N/A   Overcast
5:53 AM 50.0 °F 44.1 °F 80% 29.84 in 10.0 mi West 8.1 mph - N/A   Mostly Cloudy
6:53 AM 50.0 °F 43.0 °F 77% 29.87 in 10.0 mi WNW 9.2 mph - N/A   Overcast
7:53 AM 51.1 °F 44.1 °F 77% 29.89 in 10.0 mi West 6.9 mph - N/A   Overcast
8:53 AM 52.0 °F 43.0 °F 71% 29.91 in 10.0 mi WNW 10.4 mph - N/A   Overcast
9:53 AM 52.0 °F 43.0 °F 71% 29.91 in 10.0 mi WNW 10.4 mph - N/A   Overcast
10:46 AM 54.0 °F 41.0 °F 62% 29.92 in 10.0 mi WNW 10.4 mph - N/A   Overcast
10:53 AM 55.0 °F 42.1 °F 62% 29.92 in 10.0 mi WNW 10.4 mph 19.6 mph N/A   Overcast
11:53 AM 55.9 °F 42.1 °F 60% 29.94 in 10.0 mi NW 8.1 mph 18.4 mph N/A   Overcast
12:53 PM 55.0 °F 42.1 °F 62% 29.94 in 10.0 mi NW 5.8 mph - N/A   Overcast
1:53 PM 57.0 °F 43.0 °F 59% 29.94 in 10.0 mi WNW 10.4 mph - N/A   Overcast
2:53 PM 57.0 °F 43.0 °F 59% 29.95 in 10.0 mi West 5.8 mph - N/A   Overcast
3:53 PM 57.9 °F 42.1 °F 56% 29.94 in 10.0 mi WNW 6.9 mph - N/A   Overcast
4:53 PM 57.9 °F 43.0 °F 58% 29.95 in 10.0 mi West 9.2 mph - N/A   Overcast
5:53 PM 57.9 °F 43.0 °F 58% 29.96 in 10.0 mi West 9.2 mph - N/A   Overcast
6:53 PM 59.0 °F 44.1 °F 58% 29.96 in 10.0 mi WNW 5.8 mph - N/A   Overcast
7:53 PM 57.9 °F 44.1 °F 60% 29.97 in 10.0 mi West 5.8 mph - N/A   Overcast
8:53 PM 57.0 °F 44.1 °F 62% 29.99 in 10.0 mi Calm Calm - N/A   Overcast
9:53 PM 53.1 °F 45.0 °F 74% 30.00 in 10.0 mi Calm Calm - N/A   Overcast
10:53 PM 51.1 °F 45.0 °F 80% 30.01 in 10.0 mi WSW 3.5 mph - N/A   Mostly Cloudy
11:53 PM 52.0 °F 46.0 °F 80% 30.02 in 10.0 mi Calm Calm - N/A   Overcast